EW1845 Weather Reports


Display with metric or nautical units.
time (UTC)temp
F
wind
direction
speed
MPH
gust
MPH
rain 1hr
in
rain 24hr
in
rain mn
in
humidity
%
barometer
mb
20260504050149 56 202 0.0 0.0 0.00 0.01 0.01 81 1014.1
20260504050107 55 202 0.0 2.0 0.00 0.01 0.01 81 1014.2
20260504045136 56 196 0.0 0.0 0.00 0.01 0.01 81 1014.2
20260504044504 55 197 0.0 0.0 0.00 0.01 0.01 80 1014.1
20260504044131 56 196 0.0 0.0 0.00 0.01 0.01 80 1014.0
20260504043125 56 196 0.0 0.0 0.00 0.01 0.01 80 1014.2
20260504043103 56 196 0.0 0.0 0.00 0.01 0.01 80 1014.3
20260504042051 57 196 0.0 0.0 0.00 0.01 0.01 79 1014.0
20260504041502 56 244 1.0 3.0 0.00 0.01 0.01 79 1014.1
20260504041102 57 149 0.0 1.0 0.00 0.01 0.01 79 1013.9
20260504040032 57 150 0.0 2.0 0.00 0.01 0.01 79 1013.8
20260504040003 56 139 0.0 3.0 0.00 0.01 0.01 79 1013.8
20260504035042 57 221 0.0 2.0 0.00 0.01 0.01 80 1013.6
20260504034605 56 141 0.0 3.0 0.00 0.01 0.01 79 1013.5
20260504034103 57 240 0.0 2.0 0.00 0.01 0.01 79 1013.7
20260504033110 57 220 0.0 0.0 0.00 0.01 0.01 78 1013.5
20260504033003 56 221 0.0 4.0 0.00 0.01 0.01 78 1013.4
20260504032056 57 224 0.0 1.0 0.00 0.01 0.01 77 1013.3
20260504031603 56 173 1.0 5.0 0.00 0.01 0.01 77 1013.2
20260504025910 57 148 0.0 0.0 0.00 0.01 0.01 76 1013.0
20260504024843 57 240 1.0 8.0 0.00 0.01 0.01 76 1013.3
20260504024503 56 239 2.0 6.0 0.00 0.01 0.01 76 1013.2
20260504023843 57 237 1.0 8.0 0.00 0.01 0.01 76 1013.1
20260504023102 57 245 2.0 6.0 0.00 0.01 0.01 75 1013.1
20260504022829 57 240 1.0 5.0 0.00 0.01 0.01 75 1013.0
20260504021811 58 150 0.0 4.0 0.00 0.01 0.01 74 1012.8
20260504021504 57 182 0.0 5.0 0.00 0.01 0.01 74 1012.9
20260504020741 58 196 0.0 5.0 0.00 0.01 0.01 73 1012.8
20260504020008 57 216 0.0 6.0 0.00 0.01 0.01 73 1012.7
20260504015750 58 207 1.0 5.0 0.00 0.01 0.01 73 1012.7
20260504014806 58 243 2.0 4.0 0.00 0.01 0.01 72 1012.6
20260504014604 58 239 2.0 5.0 0.00 0.01 0.01 72 1012.6
20260504013813 59 165 2.0 7.0 0.00 0.01 0.01 72 1012.5
20260504013008 58 186 3.0 8.0 0.00 0.01 0.01 71 1012.6
20260504012745 59 199 2.0 8.0 0.00 0.01 0.01 71 1012.6
20260504011715 59 248 2.0 8.0 0.00 0.01 0.01 71 1012.4
20260504011602 59 214 1.0 9.0 0.00 0.01 0.01 72 1012.3
20260504010729 60 253 2.0 7.0 0.00 0.01 0.01 71 1012.4
20260504010112 60 209 2.0 8.0 0.00 0.01 0.01 72 1012.3
20260504005754 60 226 2.0 7.0 0.00 0.01 0.01 71 1012.3
20260504004505 60 212 3.0 6.0 0.00 0.01 0.01 70 1012.2
20260504003659 61 213 1.0 7.0 0.00 0.01 0.01 71 1012.2
20260504003106 60 217 2.0 8.0 0.00 0.01 0.01 71 1012.2
20260504002646 61 221 2.0 6.0 0.00 0.01 0.01 70 1012.1
20260504001657 62 263 2.0 5.0 0.00 0.01 0.01 68 1012.1
20260504001502 61 181 2.0 6.0 0.00 0.01 0.01 69 1012.1
20260504000625 62 230 1.0 5.0 0.00 0.01 0.01 67 1012.0
20260504000003 62 181 2.0 5.0 0.00 0.01 0.01 68 1012.1
20260503235553 62 214 1.0 7.0 0.00 0.01 0.01 68 1012.1
20260503234603 61 191 3.0 8.0 0.00 0.01 0.01 68 1012.2
20260503234536 62 143 2.0 7.0 0.00 0.01 0.01 68 1012.2
20260503233503 62 203 1.0 8.0 0.00 0.01 0.01 68 1012.0
20260503233003 61 201 2.0 6.0 0.00 0.01 0.01 68 1012.1
20260503232447 62 198 2.0 8.0 0.00 0.01 0.01 67 1012.2
20260503231602 62 231 2.0 7.0 0.00 0.01 0.01 67 1012.3
20260503231426 63 172 2.0 8.0 0.00 0.01 0.01 66 1012.2
20260503230107 62 181 2.0 9.0 0.00 0.01 0.01 66 1012.3
20260503225327 62 136 3.0 8.0 0.00 0.01 0.01 66 1012.4
20260503224503 62 236 2.0 8.0 0.00 0.01 0.01 65 1012.6
20260503224344 63 195 2.0 7.0 0.00 0.01 0.01 66 1012.5
20260503223407 63 146 2.0 6.0 0.00 0.01 0.01 64 1012.5
20260503223103 62 217 1.0 8.0 0.00 0.01 0.01 65 1012.7
20260503222419 63 150 2.0 7.0 0.00 0.01 0.01 65 1012.7
20260503221502 62 181 4.0 8.0 0.00 0.01 0.01 65 1012.8
20260503221404 62 230 2.0 7.0 0.00 0.01 0.01 65 1012.8
20260503220418 63 240 2.0 6.0 0.00 0.01 0.01 65 1012.8
20260503220002 62 213 2.0 8.0 0.00 0.01 0.01 65 1013.0
20260503215443 62 84 2.0 7.0 0.00 0.01 0.01 67 1013.0
20260503214602 61 227 3.0 7.0 0.00 0.01 0.01 68 1012.9
20260503214445 62 189 2.0 7.0 0.00 0.01 0.01 68 1012.9
20260503213005 61 181 1.0 7.0 0.00 0.01 0.01 69 1013.1
20260503212317 61 233 2.0 11.0 0.00 0.01 0.01 69 1013.0
20260503211611 60 210 2.0 12.0 0.00 0.01 0.01 70 1013.1
20260503211325 61 166 2.0 11.0 0.00 0.01 0.01 70 1013.1
20260503210002 60 176 4.0 10.0 0.00 0.01 0.01 70 1013.1
20260503205123 60 196 2.0 5.0 0.00 0.01 0.01 73 1013.0
20260503204504 60 245 2.0 6.0 0.00 0.01 0.01 73 1013.0
20260503204121 60 242 2.0 5.0 0.00 0.01 0.01 74 1013.0
20260503203102 59 210 1.0 7.0 0.00 0.01 0.01 75 1013.1
20260503203059 60 181 2.0 6.0 0.00 0.01 0.01 75 1013.1
20260503202113 60 227 2.0 7.0 0.00 0.01 0.01 74 1013.1
20260503201502 60 153 0.0 8.0 0.00 0.01 0.01 76 1013.2
20260503201133 60 281 1.0 8.0 0.00 0.01 0.01 74 1013.2
20260503200002 60 219 3.0 7.0 0.00 0.01 0.01 74 1013.4
20260503194913 60 200 2.0 0.0 0.00 0.01 0.01 76 1013.4
20260503194604 60 203 3.0 9.0 0.00 0.01 0.01 75 1013.5
20260503193919 61 215 0.0 5.0 0.00 0.01 0.01 74 1013.5
20260503193003 61 206 0.0 3.0 0.00 0.01 0.01 76 1013.5
20260503192859 61 207 0.0 0.0 0.00 0.01 0.01 76 1013.4
20260503191914 61 231 0.0 5.0 0.00 0.01 0.01 76 1013.5
20260503191603 60 192 1.0 5.0 0.00 0.01 0.01 76 1013.6
20260503190923 61 221 0.0 5.0 0.00 0.01 0.01 76 1013.6
20260503190105 61 224 0.0 2.0 0.00 0.01 0.01 75 1013.6
20260503185851 62 214 0.0 1.0 0.00 0.01 0.01 75 1013.6
20260503184840 61 46 0.0 4.0 0.00 0.01 0.01 78 1013.7
20260503184506 60 203 1.0 5.0 0.00 0.01 0.01 77 1013.8
20260503183844 61 219 0.0 3.0 0.00 0.01 0.01 80 1013.8
20260503183114 60 217 1.0 3.0 0.00 0.01 0.01 78 1013.9
20260503181738 59 222 0.0 1.0 0.00 0.01 0.01 83 1014.0
20260503181506 58 243 0.0 2.0 0.00 0.01 0.01 84 1014.0
20260503180742 57 221 0.0 1.0 0.00 0.01 0.01 84 1014.0
20260503180002 56 263 0.0 3.0 0.00 0.01 0.01 87 1014.2
20260503175752 57 200 0.0 3.0 0.00 0.01 0.01 87 1014.2
20260503174719 56 217 0.0 2.0 0.00 0.01 0.01 89 1014.2
20260503174602 56 206 0.0 4.0 0.00 0.01 0.01 89 1014.2
20260503173734 56 244 0.0 5.0 0.00 0.01 0.01 92 1014.2
20260503173009 55 255 2.0 6.0 0.00 0.01 0.01 93 1014.1
20260503172739 55 198 0.0 3.0 0.00 0.01 0.01 93 1014.0
20260503171752 55 191 0.0 3.0 0.00 0.01 0.01 94 1013.8
20260503171602 55 220 0.0 4.0 0.01 0.01 0.01 94 1013.9
20260503170809 55 148 0.0 0.0 0.00 0.01 0.01 95 1013.8
20260503130103 56 201 0.0 2.0 0.00 0.00 0.00 85 1012.1
20260503110335 56 245 0.0 0.0 0.00 0.00 0.00 85 1012.0
20260503110105 56 207 0.0 2.0 0.00 0.00 0.00 85 1012.1
20260503090105 56 222 1.0 4.0 0.00 0.00 0.00 89 1012.5
20260503081627 56 265 1.0 3.0 0.00 0.00 0.00 90 1012.5
20260503081512 56 279 1.0 4.0 0.00 0.00 0.00 90 1012.6
20260503080633 56 231 0.0 4.0 0.00 0.00 0.00 91 1012.3
20260503072658 57 234 0.0 1.0 0.00 0.00 0.00 92 1012.2
20260503071703 57 134 0.0 3.0 0.00 0.00 0.00 92 1012.1
20260503071624 56 165 1.0 4.0 0.00 0.00 0.00 92 1012.2
20260503070630 57 176 0.0 1.0 0.00 0.00 0.00 92 1012.0
20260503070114 56 242 1.0 3.0 0.00 0.00 0.00 92 1012.0
20260503060245 57 41 0.0 0.0 0.00 0.00 0.00 92 1012.0
20260503060116 57 41 0.0 1.0 0.00 0.00 0.00 92 1012.0
20260503054503 56 46 0.0 2.0 0.00 0.00 0.00 92 1012.2